Temp
26 25 23 26 28 29 31 29 33 31 30 28 27 28 26 24 25 23 22 22 20 20 17 17 18 18 18 18 17 17 17 17 17 17 18 18 18 18 18 18 18 18 18 18 18 18 18 18 18
24 25 26 29 25 21 27 31 31 31 28 28 28 28 27 25 23 22 22 21 19 18 17 17 17 17 17 17 18 17 17 17 17 17 17 17 17 18 18 18 18 18 18 18 18 18 18 18 18
26 26 28 32 23 31 31 32 32 31 29 30 29 27 24 22 23 22 21 22 21 18 17 17 17 17 16 17 17 17 16 16 17 17 17 17 17 17 17 18 18 18 18 17 18 17 17 17 17
26 28 29 30 24 33 33 32 32 32 30 30 29 26 21 19 22 21 21 21 21 19 17 17 17 17 17 17 17 16 15 16 16 16 17 17 17 16 17 17 17 17 17 17 17 17 17 17 17
27 30 33 33 32 33 33 33 30 28 30 30 28 26 21 18 21 21 21 21 20 19 18 17 17 17 16 17 16 16 17 16 16 16 17 17 17 17 16 16 17 17 17 17 17 17 16 16 16
30 32 32 29 32 33 32 32 32 24 30 29 28 25 19 17 21 21 22 22 20 19 18 17 17 16 16 16 16 16 16 16 16 17 17 17 17 17 16 16 17 16 16 16 16 16 16 16 16
31 34 31 33 32 32 32 32 31 30 30 29 28 27 20 19 21 22 21 21 18 17 17 16 16 16 16 16 15 15 15 16 17 17 17 17 17 16 16 16 16 16 16 16 16 16 15 15 15
31 34 33 34 32 31 31 31 29 29 27 27 27 26 23 20 21 21 20 18 18 18 17 17 15 16 15 15 15 16 15 16 16 16 16 16 16 16 16 15 15 15 16 16 15 15 15 15 15
31 32 32 32 32 31 31 30 27 26 24 22 24 23 21 21 21 20 19 18 17 17 16 17 15 15 15 15 15 15 15 15 16 16 16 16 15 15 15 15 15 15 15 15 15 14 14 14 14
33 33 31 32 33 32 31 29 27 26 22 19 19 20 20 19 19 19 18 16 15 15 15 16 15 15 15 15 15 14 14 16 14 15 15 15 16 16 15 14 15 15 15 15 14 14 14 14 14
31 31 32 31 30 29 28 28 28 25 19 17 16 15 14 15 15 15 15 15 14 14 14 14 14 15 15 15 14 14 14 14 14 14 14 15 15 15 15 16 15 15 14 14 14 14 14 13 13
31 30 30 29 28 29 26 22 17 17 14 14 13 13 14 14 14 14 13 14 13 13 13 13 13 14 14 13 13 13 13 13 13 13 13 14 15 15 15 16 15 14 12 13 13 13 12 12 12
30 29 28 27 26 25 23 20 17 14 13 13 13 13 13 13 12 13 13 12 13 12 12 12 12 12 13 13 12 13 13 13 13 13 13 13 13 13 14 14 14 14 13 13 12 12 12 12 12
29 29 28 28 26 25 23 21 19 14 13 13 13 12 12 12 12 12 12 12 12 12 12 12 11 12 11 11 11 12 11 12 12 12 12 12 12 13 13 13 13 13 12 12 11 11 11 11 11
28 29 29 28 27 25 25 21 16 15 14 14 14 14 12 11 11 11 11 12 12 12 11 11 11 12 11 11 11 11 11 10 11 11 11 11 11 11 12 11 11 11 11 11 10 10 10 10 10
30 31 27 29 28 28 26 21 18 16 15 14 14 12 11 11 11 11 11 11 11 11 12 11 10 10 10 10 10 9 9 9 9 9 10 9 10 10 10 10 10 10 10 10 10 9 10 10 9
30 20 28 28 29 29 28 22 20 19 18 15 14 11 10 10 10 11 11 11 11 10 10 10 10 10 10 10 10 11 11 10 9 9 9 9 9 9 9 9 9 9 9 10 10 10 10 9 9
22 27 30 29 28 28 26 23 22 20 18 16 12 12 11 10 11 11 10 10 10 10 10 10 10 9 10 10 11 11 11 11 11 9 9 8 8 8 8 8 9 9 9 10 9 9 9 8 9
31 30 29 28 27 27 26 24 22 21 18 16 15 14 11 11 10 11 10 11 10 10 10 10 10 9 9 10 10 10 10 10 11 9 8 8 8 8 8 9 10 9 9 9 9 8 8 8 9
31 30 21 28 27 26 26 24 22 21 21 17 15 14 13 12 12 12 12 11 11 10 11 10 10 9 9 9 9 9 9 10 10 9 9 8 7 8 8 8 8 8 8 9 8 9 8 8 9
29 29 29 28 27 27 26 24 20 20 18 16 15 15 15 14 13 12 12 12 12 12 11 11 10 9 8 8 9 9 9 10 9 9 8 8 7 7 7 7 7 7 8 8 8 8 8 9 9
28 29 29 28 27 27 26 25 21 19 18 17 17 16 15 14 14 13 13 13 13 12 11 10 10 9 9 8 9 8 8 8 7 7 7 7 7 7 7 7 7 7 7 8 8 8 8 8 8
29 29 28 28 28 27 27 16 21 17 15 16 17 14 14 14 13 13 12 11 11 12 12 11 10 9 9 8 8 7 7 7 7 7 7 7 7 7 7 6 6 7 7 7 7 7 8 7 7
29 28 29 29 28 23 24 23 19 20 20 18 14 13 13 13 11 12 11 11 11 11 11 10 10 9 8 8 7 7 6 6 6 6 6 7 7 7 6 6 6 6 6 7 7 7 7 7 8
29 28 26 27 27 26 25 25 17 19 20 18 15 13 12 12 13 12 12 11 12 11 10 10 9 8 7 7 7 6 6 5 6 5 5 5 5 6 6 6 6 6 6 6 6 7 7 6 7
27 27 26 23 24 25 28 20 16 18 17 15 14 14 14 12 12 13 12 11 11 10 9 9 8 7 7 6 6 5 5 5 4 4 4 4 5 5 5 5 6 6 6 6 5 6 6 6 6
26 26 27 24 26 26 22 18 19 18 17 16 16 14 13 13 13 13 12 10 9 9 9 8 7 7 7 6 5 4 4 4 4 3 3 4 4 4 4 5 5 5 5 6 5 5 6 6 6
26 27 24 26 23 23 22 19 18 17 17 17 16 15 15 14 12 11 11 9 10 9 8 7 6 7 6 5 4 5 4 3 3 3 3 3 3 4 4 4 5 5 5 5 4 4 5 5 5
25 25 24 24 24 23 23 19 19 19 19 18 16 16 15 13 13 12 12 12 9 8 8 7 6 5 5 4 4 4 3 3 3 2 2 2 3 4 4 4 4 4 4 4 4 5 5 5 6
25 23 23 22 22 24 23 17 19 20 18 17 16 15 14 13 13 12 12 8 7 7 6 6 5 5 4 5 4 3 3 3 2 2 2 2 3 3 3 4 4 4 5 4 4 5 5 5 5
Height
1516 1513 1515 1516 1513 1503 1489 1503 1480 1491 1503 1510 1513 1511 1520 1526 1524 1537 1543 1545 1541 1544 1547 1548 1549 1550 1551 1552 1554 1555 1556 1556 1557 1558 1558 1559 1559 1560 1561 1562 1562 1562 1563 1562 1563 1563 1562 1562 1561
1517 1518 1517 1511 1526 1534 1516 1486 1492 1498 1510 1512 1513 1515 1520 1531 1536 1540 1544 1548 1545 1548 1550 1550 1551 1552 1553 1555 1555 1556 1558 1559 1559 1560 1560 1561 1561 1561 1562 1563 1564 1564 1564 1564 1564 1564 1564 1563 1562
1515 1516 1513 1500 1522 1496 1493 1484 1488 1498 1504 1499 1510 1520 1529 1540 1540 1544 1547 1549 1551 1551 1552 1551 1553 1554 1556 1556 1557 1557 1559 1560 1561 1561 1562 1563 1563 1564 1564 1564 1564 1565 1565 1565 1565 1564 1564 1564 1563
1519 1513 1506 1503 1518 1483 1483 1487 1490 1495 1500 1500 1508 1526 1540 1544 1545 1547 1550 1552 1552 1553 1553 1553 1555 1556 1557 1557 1558 1560 1560 1561 1561 1562 1563 1564 1565 1566 1566 1566 1566 1566 1566 1565 1566 1565 1565 1565 1564
1518 1506 1491 1489 1489 1487 1486 1489 1494 1507 1493 1497 1512 1528 1540 1547 1549 1551 1553 1554 1551 1555 1555 1555 1556 1557 1558 1559 1560 1560 1561 1561 1562 1563 1564 1564 1565 1566 1567 1567 1568 1567 1567 1567 1567 1566 1565 1564 1564
1511 1499 1498 1513 1493 1493 1494 1491 1492 1510 1496 1502 1517 1530 1545 1549 1552 1553 1555 1556 1553 1556 1558 1558 1558 1558 1559 1560 1561 1562 1562 1562 1563 1564 1565 1565 1566 1566 1567 1568 1568 1569 1569 1567 1567 1566 1565 1565 1564
1507 1489 1496 1489 1494 1498 1497 1490 1490 1496 1487 1505 1517 1529 1547 1551 1553 1554 1556 1557 1557 1557 1559 1558 1561 1560 1561 1561 1562 1562 1564 1564 1565 1566 1567 1566 1567 1568 1568 1568 1569 1568 1568 1567 1567 1566 1566 1565 1564
1506 1489 1486 1486 1499 1504 1504 1500 1501 1498 1508 1521 1525 1531 1545 1552 1553 1555 1555 1556 1558 1562 1562 1563 1561 1564 1562 1561 1562 1563 1564 1566 1566 1567 1568 1568 1568 1569 1568 1568 1568 1568 1568 1567 1567 1566 1564 1564 1562
1506 1496 1493 1495 1497 1505 1508 1513 1519 1521 1528 1533 1535 1537 1548 1552 1554 1557 1558 1560 1562 1563 1564 1565 1564 1563 1562 1563 1563 1564 1565 1567 1569 1570 1570 1570 1570 1570 1569 1568 1568 1568 1567 1566 1566 1565 1564 1563 1561
1503 1492 1504 1507 1504 1508 1509 1515 1525 1528 1538 1546 1548 1550 1553 1554 1558 1559 1560 1563 1564 1564 1564 1566 1565 1565 1565 1565 1564 1565 1566 1566 1569 1574 1571 1572 1573 1573 1571 1568 1568 1567 1565 1565 1565 1565 1564 1562 1564
1509 1506 1509 1512 1516 1519 1522 1523 1525 1531 1549 1554 1555 1556 1557 1559 1561 1564 1566 1566 1565 1565 1564 1564 1564 1565 1564 1564 1564 1565 1565 1565 1564 1570 1570 1572 1571 1572 1570 1569 1565 1563 1562 1563 1564 1563 1563 1562 1561
1515 1516 1516 1521 1523 1523 1531 1539 1548 1546 1559 1559 1559 1559 1559 1560 1563 1565 1566 1568 1566 1566 1566 1566 1566 1565 1566 1564 1565 1566 1565 1568 1570 1572 1569 1568 1570 1569 1565 1567 1565 1562 1560 1562 1564 1559 1558 1558 1558
1517 1521 1523 1526 1529 1533 1538 1546 1553 1559 1562 1562 1563 1562 1563 1564 1566 1566 1567 1568 1568 1568 1567 1568 1566 1564 1565 1565 1565 1565 1566 1566 1565 1564 1563 1564 1563 1562 1561 1561 1560 1560 1560 1559 1557 1556 1557 1556 1556
1520 1522 1524 1526 1532 1537 1542 1550 1553 1564 1565 1565 1566 1566 1566 1567 1568 1569 1570 1569 1569 1570 1569 1568 1567 1566 1566 1565 1566 1566 1565 1565 1563 1564 1563 1563 1563 1562 1561 1559 1558 1557 1555 1554 1554 1553 1554 1554 1553
1521 1520 1519 1522 1529 1538 1535 1550 1562 1565 1566 1568 1569 1569 1570 1570 1572 1572 1572 1571 1570 1570 1570 1569 1568 1567 1566 1565 1565 1564 1564 1565 1562 1561 1561 1560 1559 1558 1556 1555 1554 1553 1553 1551 1551 1551 1551 1548 1548
1515 1511 1515 1517 1523 1526 1532 1551 1560 1565 1566 1569 1571 1572 1572 1573 1574 1574 1574 1573 1573 1573 1571 1571 1571 1570 1567 1565 1565 1564 1562 1562 1560 1559 1558 1556 1555 1553 1552 1550 1549 1548 1547 1547 1547 1546 1546 1546 1546
1514 1556 1512 1515 1519 1523 1525 1547 1557 1560 1563 1568 1571 1573 1574 1575 1575 1576 1576 1576 1575 1576 1576 1575 1573 1571 1570 1568 1568 1566 1563 1563 1560 1558 1556 1554 1553 1551 1549 1548 1547 1545 1544 1542 1543 1544 1542 1542 1542
1547 1526 1510 1516 1522 1525 1534 1546 1553 1558 1562 1568 1573 1575 1576 1577 1577 1577 1577 1578 1579 1579 1579 1577 1575 1572 1571 1569 1567 1565 1564 1563 1561 1557 1556 1555 1553 1551 1548 1546 1544 1542 1541 1538 1538 1538 1538 1537 1539
1506 1509 1515 1520 1526 1527 1534 1541 1549 1555 1564 1568 1572 1575 1577 1576 1577 1579 1578 1578 1579 1580 1582 1580 1577 1574 1570 1568 1566 1564 1562 1561 1560 1557 1555 1554 1551 1551 1548 1547 1545 1542 1538 1536 1534 1534 1533 1536 1536
1508 1508 1546 1521 1523 1529 1529 1537 1548 1550 1553 1563 1571 1574 1576 1577 1579 1580 1581 1581 1579 1580 1579 1581 1577 1574 1571 1568 1565 1563 1561 1559 1557 1556 1554 1549 1549 1547 1545 1542 1541 1539 1536 1535 1533 1531 1532 1533 1534
1514 1518 1517 1521 1521 1523 1527 1534 1546 1550 1555 1564 1569 1573 1577 1578 1580 1581 1582 1582 1581 1581 1581 1580 1576 1575 1570 1568 1565 1562 1560 1558 1555 1554 1551 1548 1546 1545 1543 1540 1539 1537 1534 1532 1530 1528 1528 1530 1530
1524 1520 1518 1518 1525 1524 1518 1527 1532 1552 1563 1569 1570 1574 1577 1578 1580 1582 1583 1582 1581 1582 1581 1578 1577 1574 1570 1567 1565 1562 1559 1556 1554 1552 1549 1547 1544 1542 1539 1536 1536 1533 1531 1529 1527 1526 1526 1527 1527
1523 1522 1520 1515 1514 1515 1510 1561 1534 1557 1570 1572 1569 1576 1579 1581 1582 1583 1583 1584 1582 1580 1579 1578 1576 1573 1569 1565 1563 1560 1558 1555 1552 1550 1546 1544 1542 1539 1537 1534 1532 1530 1528 1526 1524 1524 1524 1525 1525
1525 1520 1511 1504 1511 1541 1527 1539 1556 1551 1554 1562 1574 1578 1581 1583 1583 1583 1583 1582 1582 1580 1578 1578 1575 1571 1568 1565 1561 1559 1555 1552 1549 1546 1544 1542 1540 1538 1534 1532 1530 1528 1526 1524 1523 1523 1522 1522 1522
1520 1522 1534 1523 1521 1525 1521 1520 1570 1560 1561 1564 1575 1581 1583 1583 1582 1581 1583 1582 1579 1579 1577 1576 1572 1570 1567 1564 1560 1556 1553 1550 1547 1544 1542 1540 1538 1536 1532 1530 1528 1526 1525 1523 1522 1521 1521 1520 1520
1529 1528 1536 1555 1546 1530 1502 1549 1575 1568 1571 1574 1577 1580 1583 1583 1583 1582 1582 1582 1581 1579 1576 1573 1572 1569 1566 1563 1559 1554 1551 1548 1546 1543 1540 1538 1536 1534 1531 1528 1527 1525 1524 1523 1522 1521 1519 1519 1519
1536 1534 1529 1539 1522 1518 1531 1563 1564 1570 1573 1576 1577 1581 1583 1582 1581 1581 1582 1582 1580 1578 1575 1572 1570 1568 1565 1560 1557 1554 1551 1548 1544 1540 1537 1536 1534 1532 1529 1527 1526 1525 1524 1523 1523 1520 1518 1518 1518
1535 1533 1542 1528 1546 1548 1540 1557 1570 1571 1573 1575 1578 1579 1580 1581 1582 1584 1583 1582 1580 1578 1574 1572 1570 1567 1563 1560 1557 1554 1550 1545 1542 1538 1534 1533 1531 1529 1528 1527 1526 1525 1525 1524 1524 1521 1519 1519 1519
1543 1538 1541 1539 1540 1548 1542 1568 1566 1567 1568 1573 1578 1579 1579 1583 1583 1584 1581 1579 1578 1576 1576 1573 1570 1567 1562 1560 1557 1552 1549 1545 1541 1537 1533 1531 1529 1528 1528 1528 1527 1526 1525 1525 1524 1523 1522 1521 1521
1545 1549 1547 1551 1553 1538 1539 1576 1568 1569 1573 1576 1578 1582 1583 1585 1584 1583 1582 1579 1579 1577 1576 1573 1568 1565 1564 1561 1556 1553 1548 1544 1541 1537 1533 1530 1529 1529 1529 1529 1528 1527 1526 1525 1525 1526 1525 1525 1524
Wind_Speed
13 12 8 11 4 7 9 16 19 19 17 19 14 16 23 22 16 6 9 8 6 5 5 8 8 6 5 5 5 6 8 8 6 4 4 6 8 9 9 10 11 11 11 12 13 15 15 16 16
6 11 11 9 6 7 15 2 21 19 15 13 8 16 21 20 17 15 9 9 9 7 9 6 6 5 5 4 4 5 6 6 6 6 7 9 10 11 11 11 11 11 11 12 13 14 15 16 16
8 11 16 10 9 6 15 17 17 18 9 6 18 15 11 9 15 9 12 10 6 5 6 5 4 3 2 3 3 4 4 5 5 7 9 10 11 12 12 11 10 10 10 11 12 13 15 16 17
6 10 12 9 20 15 15 10 17 17 17 16 16 16 12 10 12 10 9 8 7 12 5 4 3 2 2 2 4 4 5 5 7 10 11 11 11 11 11 9 9 8 8 8 10 13 14 15 18
7 15 13 7 15 11 7 3 30 17 22 22 23 19 18 9 12 11 11 10 9 11 2 3 3 2 2 2 4 4 5 7 9 10 12 12 12 10 8 7 6 5 5 5 6 10 13 15 16
19 17 6 8 16 10 8 7 10 27 24 25 21 17 10 9 12 11 11 10 10 7 7 3 3 3 3 3 3 3 7 9 10 11 11 11 10 9 7 5 3 1 2 3 4 9 12 14 17
18 12 18 14 14 10 3 8 12 9 28 21 9 17 13 11 11 10 9 9 14 11 11 11 5 3 2 3 4 4 6 8 9 9 9 9 8 7 5 4 2 2 2 3 5 9 12 15 18
15 13 3 7 10 14 4 12 19 23 19 14 2 10 15 13 12 12 13 15 9 8 7 4 6 4 5 3 3 2 4 6 7 9 9 8 6 6 5 4 6 5 6 7 8 10 13 16 17
13 14 8 17 15 12 11 13 17 20 21 21 21 22 18 14 10 11 9 10 8 8 8 7 7 6 3 1 3 2 4 5 5 6 8 6 3 4 5 5 11 11 11 11 12 13 14 14 17
11 5 16 7 10 11 14 16 13 17 17 18 21 19 15 12 10 9 10 11 9 9 8 8 7 6 3 1 2 6 9 6 4 7 9 5 8 6 9 8 14 16 16 14 12 12 11 10 9
8 11 9 9 13 14 14 14 13 15 12 13 14 16 17 16 16 14 13 11 11 11 11 8 8 6 10 6 0 4 9 10 12 10 7 8 10 9 11 12 17 13 9 9 12 12 8 8 12
14 10 9 12 5 9 16 17 25 26 14 15 16 16 14 14 15 12 12 12 12 14 14 13 10 12 9 9 11 6 4 2 4 8 10 11 12 14 13 14 11 6 4 9 10 11 9 12 16
11 12 15 15 16 18 19 19 16 20 17 14 14 15 16 16 15 14 13 12 14 14 15 14 14 12 10 5 8 4 6 8 9 14 9 14 12 15 14 14 13 16 11 15 14 12 14 19 11
10 11 14 12 16 15 16 14 6 11 13 13 15 16 15 16 12 13 13 13 15 13 13 12 14 14 13 11 8 6 3 2 11 14 18 17 15 18 20 18 21 23 22 18 15 17 21 22 9
17 13 13 17 12 17 19 13 10 10 13 14 14 15 16 14 13 13 11 12 10 10 8 10 10 10 9 6 5 3 2 3 6 11 15 16 16 17 18 20 21 22 23 24 27 27 29 23 12
15 13 10 13 11 6 7 10 12 11 13 14 13 14 15 14 12 11 12 13 13 13 15 16 16 14 15 14 15 10 11 7 8 9 12 13 14 15 15 18 20 17 15 15 18 20 23 21 18
8 8 7 10 2 2 4 10 8 10 9 16 15 16 14 14 12 13 13 14 14 15 13 13 14 14 13 13 10 11 13 12 11 14 17 15 15 14 15 16 17 19 21 26 21 21 19 19 12
11 11 5 10 9 5 6 9 10 8 9 12 16 13 12 12 12 12 13 15 11 12 12 13 13 15 12 12 12 11 11 11 12 9 11 13 11 13 16 16 18 18 16 20 21 22 17 13 15
7 10 5 5 5 4 5 7 8 9 12 13 8 9 8 9 11 9 12 11 12 11 12 12 13 15 15 16 13 13 13 12 10 10 11 13 12 13 14 14 13 16 19 17 16 15 13 12 8
6 8 14 7 3 5 8 8 6 8 9 16 9 8 11 13 12 9 8 7 8 9 8 12 14 15 16 16 14 13 13 11 12 7 16 6 12 13 13 13 14 13 15 14 18 16 14 10 10
10 16 14 10 3 11 3 14 14 11 11 11 9 8 7 9 9 9 5 5 6 6 9 12 14 14 15 18 16 15 13 13 13 16 17 19 18 14 17 14 14 14 13 15 16 14 13 10 10
6 7 9 9 9 13 19 12 18 14 10 8 5 7 5 9 9 7 5 6 6 8 11 12 13 14 16 18 19 17 17 18 17 14 15 19 16 15 12 13 12 15 13 13 16 11 11 12 11
10 12 14 16 14 17 8 5 7 13 8 7 6 7 6 9 9 9 13 12 7 7 11 14 14 16 16 19 18 16 17 18 17 16 15 16 15 16 10 13 12 12 12 13 13 10 10 10 11
7 13 17 16 8 6 8 8 14 10 12 5 12 10 10 9 9 9 12 7 9 12 13 17 16 18 20 19 17 18 19 17 17 15 14 14 16 13 12 12 12 11 10 8 8 7 9 10 12
9 15 12 13 7 9 12 2 8 13 16 12 15 12 10 5 7 5 5 14 12 13 11 18 18 19 17 21 19 20 18 17 16 15 14 16 14 14 15 13 11 10 9 8 8 8 6 7 9
19 8 8 14 15 15 12 6 5 9 11 14 13 8 5 2 3 5 9 10 13 15 17 13 15 16 20 18 18 17 17 15 17 18 18 15 14 14 13 10 8 8 7 8 9 7 6 6 6
13 12 16 11 19 14 8 11 10 9 7 4 4 5 0 2 4 9 9 9 15 13 16 10 16 17 20 17 17 17 19 19 18 19 15 14 15 14 14 8 7 7 7 8 9 8 5 3 2
13 9 10 8 7 9 17 10 7 10 6 4 2 2 5 2 11 8 10 13 12 17 15 16 17 18 18 16 17 18 17 17 19 18 15 14 12 11 8 7 7 5 6 6 8 12 8 6 7
12 8 6 4 7 8 9 7 9 9 11 9 7 5 11 10 9 11 12 16 16 15 18 18 17 18 16 17 18 15 16 19 16 17 14 12 11 6 7 8 10 9 7 8 9 10 13 11 8
4 8 6 8 7 7 11 5 4 10 14 9 7 8 9 10 12 14 18 17 17 18 18 17 16 16 17 17 15 15 18 18 15 17 14 12 8 7 9 9 10 11 8 9 7 5 6 5 6
Wind_Direction
305 315 320 273 253 111 99 88 83 69 64 59 55 50 68 45 21 58 110 107 89 115 132 141 148 158 176 173 157 166 178 184 200 190 172 162 154 146 139 129 120 114 105 95 84 76 69 62 55
277 281 281 280 18 300 73 168 80 83 88 98 79 88 74 59 77 87 98 118 71 91 126 143 145 155 162 178 183 178 183 192 191 182 172 165 160 154 144 136 125 113 101 89 78 65 53 45 40
295 274 269 197 217 62 110 96 101 108 115 143 95 61 45 11 52 86 100 112 89 100 125 141 139 144 152 160 166 168 171 171 173 174 168 164 157 148 142 137 128 115 100 85 71 59 47 36 29
275 257 253 47 287 81 91 123 118 127 116 79 96 89 88 39 72 94 109 108 96 117 83 122 117 100 119 153 157 171 167 178 176 175 170 163 155 150 149 141 130 119 101 84 68 51 37 31 26
252 259 256 158 74 65 69 13 62 327 102 91 88 83 92 77 86 96 104 103 114 101 60 81 75 62 86 142 162 164 176 183 182 177 173 168 162 158 151 141 129 120 110 93 66 35 25 17 11
254 252 353 26 96 100 37 277 144 176 107 96 96 91 81 106 103 98 103 95 98 75 90 32 26 89 119 155 167 192 181 185 185 185 181 174 169 163 164 162 164 148 96 58 13 4 2 3 0
254 264 169 187 110 99 92 287 341 87 74 48 96 78 113 114 109 103 104 113 81 82 107 91 49 50 57 146 160 181 201 195 195 196 193 187 183 182 189 208 226 239 254 307 336 348 349 349 351
277 283 150 53 116 73 78 34 18 51 58 86 307 126 130 127 117 117 102 90 89 64 71 51 58 82 117 152 170 170 229 210 202 207 203 200 207 215 225 249 250 267 281 303 319 331 338 340 352
267 276 85 33 50 100 134 80 68 70 72 63 63 87 118 121 121 119 88 79 80 64 63 37 56 80 87 192 174 175 205 214 221 234 225 218 218 267 269 231 255 282 287 301 313 319 330 350 360
294 33 60 15 53 65 49 107 130 110 91 74 79 87 98 107 105 100 83 73 65 57 54 46 50 42 41 73 189 156 185 186 122 273 264 245 238 240 229 252 283 299 294 293 309 327 352 3 334
20 32 58 88 78 84 75 64 47 101 54 64 82 70 76 86 85 81 77 68 68 59 70 51 70 61 13 15 325 268 261 265 198 230 259 250 266 263 271 276 289 287 299 311 295 326 338 300 331
84 53 91 94 71 84 76 80 58 64 80 82 82 84 91 102 99 90 86 73 66 61 63 57 52 49 44 33 47 61 126 126 253 273 236 239 266 269 257 257 294 286 245 244 254 249 245 296 321
101 93 95 90 82 79 84 72 83 78 83 87 90 88 85 82 81 83 87 80 67 66 62 55 55 67 71 83 53 22 210 205 219 231 256 238 242 253 248 255 252 260 255 240 235 246 285 308 318
125 124 120 121 110 100 96 87 85 95 98 90 85 85 87 90 96 88 79 79 72 62 58 52 43 37 40 43 41 24 352 248 246 246 254 269 263 262 261 249 245 252 243 242 254 282 297 306 302
145 146 155 143 140 137 123 78 91 107 104 93 91 94 83 83 84 78 83 85 83 81 71 56 44 46 45 41 55 73 353 340 277 269 276 285 289 285 279 273 270 268 266 272 280 286 284 293 276
200 191 148 137 154 146 236 108 128 140 129 118 112 98 91 86 88 86 82 81 75 65 56 48 45 34 29 26 13 14 8 351 337 321 305 298 293 288 286 283 277 277 283 301 295 287 292 281 265
306 197 190 104 119 313 303 110 157 162 154 123 118 101 97 91 87 86 83 73 64 54 53 44 38 29 29 18 14 2 351 342 340 339 336 328 327 325 315 298 291 288 288 290 282 289 280 274 257
180 259 67 36 63 53 63 112 135 161 115 117 113 110 99 94 89 79 66 65 66 54 39 32 25 22 20 6 1 345 339 332 329 319 322 324 322 337 326 324 324 318 306 291 278 273 274 259 276
7 350 26 105 104 298 110 143 145 140 125 135 128 115 124 116 100 103 81 71 72 59 24 18 15 12 16 7 4 354 345 340 327 327 329 324 331 322 315 310 299 301 297 296 280 275 266 256 269
302 301 10 134 158 262 170 156 171 144 157 122 132 129 158 131 130 111 94 87 72 43 29 4 9 6 5 7 0 353 345 339 329 333 336 309 328 314 300 301 293 300 286 286 285 269 246 235 247
69 335 358 349 325 241 227 198 192 158 142 136 143 145 121 142 103 113 72 67 50 32 9 358 1 360 3 1 351 343 343 331 334 324 314 318 321 312 313 301 295 295 293 287 290 278 248 238 250
352 328 319 291 268 294 208 291 164 169 155 159 138 121 127 103 87 68 61 22 17 1 353 359 353 358 355 355 348 344 339 337 332 330 320 325 318 323 310 294 291 286 282 281 287 279 249 246 255
5 332 309 298 268 296 40 61 128 111 154 184 129 106 118 86 77 53 35 11 340 348 5 1 347 348 349 343 341 336 330 328 326 319 319 324 328 316 309 307 300 301 294 280 291 286 255 254 258
308 281 271 256 269 255 149 247 51 41 36 121 113 113 95 82 61 18 332 356 346 355 355 345 345 346 345 342 334 335 323 325 321 322 329 328 325 321 308 311 310 311 313 309 312 300 276 269 259
290 334 318 314 328 311 210 298 43 41 35 70 116 114 113 119 332 5 313 330 10 358 345 342 345 347 339 331 334 329 325 335 331 331 332 334 328 317 312 315 317 327 327 332 330 333 318 281 253
296 340 303 328 313 309 329 58 79 47 59 104 130 141 116 15 28 334 8 354 347 344 340 344 348 342 341 345 337 333 336 339 337 330 327 328 328 328 329 336 338 348 358 358 356 339 330 301 295
347 332 333 287 271 275 108 95 107 61 64 66 120 139 235 303 309 3 359 355 344 349 348 359 340 344 336 340 346 350 347 338 330 324 323 315 319 321 327 339 351 9 25 20 31 12 351 359 341
342 313 332 327 305 321 93 80 46 35 50 35 32 336 12 346 36 21 357 341 350 359 1 352 350 342 338 345 352 345 342 344 345 339 336 338 332 331 4 20 23 23 46 42 50 33 35 60 70
341 11 336 319 329 318 323 82 47 20 37 29 30 19 27 24 24 353 350 359 11 2 348 343 343 346 350 355 350 357 356 350 349 353 348 346 350 358 19 31 31 35 33 28 24 28 48 58 56
45 7 359 335 329 3 295 78 66 28 44 23 71 27 18 14 10 352 354 12 5 359 348 351 348 348 0 354 357 2 339 347 354 0 354 2 5 17 34 20 23 15 21 20 13 15 0 3 359